Ketchikan, AK

9:55 PM AKDT on September 20, 2018 (GMT -0800)
Ketchikan International

Weather History for PAKT - November, 2017

Change the Weather History Date:

Saturday, November 4, 2017

  Actual Average Record
Temperature  
Mean Temperature 38 °F -  
Max Temperature 45 °F 48 °F 64 °F (1970)
Min Temperature 32 °F 37 °F 19 °F (1973)
Degree Days  
Heating Degree Days 27    
Moisture  
Dew Point 26 °F    
Average Humidity 68    
Maximum Humidity 88    
Minimum Humidity 42    
Precipitation  
Precipitation 0.00 in - - ()
Sea Level Pressure  
Sea Level Pressure 30.07 in    
Wind  
Wind Speed 6 mph (NW)    
Max Wind Speed 10 mph    
Max Gust Speed -    
Visibility 10 miles    
Events      
Averages and records for this station are not official NWS values.
T = Trace of Precipitation, MM = Missing Value Source: NWS Daily Summary

Daily Weather History Graph

Daily Weather History Graph

Search for Another Location

Airport or City:

Astronomy

Nov. 04, 2017 Rise Set
Actual Time 7:58 AM AKDT 5:01 PM AKDT
Civil Twilight 7:19 AM AKDT 5:40 PM AKDT
Nautical Twilight 6:35 AM AKDT 6:24 PM AKDT
Astronomical Twilight 5:53 AM AKDT 7:06 PM AKDT
Moon 5:59 PM AKDT (11/4) 8:14 AM AKDT (11/4)
Length of Visible Light 10h 21m
Length of Day
9h 02m
Waxing Gibbous, 99% of the Moon is Illuminated
Nov 4
Waxing Gibbous
Nov 10
Last Quarter
Nov 18
New
Nov 26
First Quarter
Dec 3
Full

Hourly Weather History & Observations

Time (AKDT) Temp. Windchill Dew Point Humidity Pressure Visibility Wind Dir Wind Speed Gust Speed Precip Events Conditions
12:53 AM 32.0 °F 27.5 °F 28.9 °F 88% 30.03 in 10.0 mi WNW 4.6 mph - 0.00 in   Overcast
1:01 AM 32.0 °F 27.5 °F 28.0 °F 85% 30.02 in 10.0 mi WNW 4.6 mph - N/A   Overcast
1:25 AM 33.1 °F - 28.0 °F 82% 30.02 in 10.0 mi Calm Calm - N/A   Overcast
1:53 AM 32.0 °F 27.5 °F 27.0 °F 82% 30.03 in 10.0 mi WNW 4.6 mph - N/A   Overcast
2:38 AM 33.1 °F 30.0 °F 28.0 °F 82% 30.02 in 10.0 mi WNW 3.5 mph - N/A   Overcast
2:53 AM 33.1 °F 28.7 °F 28.9 °F 85% 30.02 in 10.0 mi West 4.6 mph - N/A   Overcast
3:00 AM 32.0 °F 27.5 °F 28.9 °F 88% 30.01 in 10.0 mi WNW 4.6 mph - N/A   Overcast
3:53 AM 33.1 °F 26.1 °F 28.0 °F 82% 30.02 in 10.0 mi NW 8.1 mph - N/A   Overcast
4:53 AM 33.1 °F 27.7 °F 28.0 °F 82% 30.01 in 10.0 mi NW 5.8 mph - N/A   Scattered Clouds
5:53 AM 34.0 °F 26.0 °F 27.0 °F 75% 30.01 in 10.0 mi NW 10.4 mph - N/A   Overcast
6:05 AM 35.1 °F 28.6 °F 27.0 °F 72% 30.00 in 10.0 mi NNW 8.1 mph - N/A   Overcast
6:53 AM 33.8 °F 27.0 °F 28.4 °F 81% 30.02 in 10.0 mi NNW 8.1 mph - N/A   Scattered Clouds
7:53 AM 33.8 °F 26.4 °F 28.4 °F 81% 30.03 in 10.0 mi NNW 9.2 mph - N/A   Partly Cloudy
8:53 AM 35.6 °F 29.2 °F 28.4 °F 75% 30.04 in 10.0 mi NNW 8.1 mph - N/A   Partly Cloudy
9:53 AM 37.4 °F 31.4 °F 28.4 °F 70% 30.05 in 10.0 mi NNW 8.1 mph - N/A   Scattered Clouds
10:53 AM 39.2 °F 32.5 °F 24.8 °F 56% 30.05 in 10.0 mi NW 10.4 mph - N/A   Mostly Cloudy
11:53 AM 41.0 °F 34.7 °F 24.8 °F 53% 30.06 in 10.0 mi NW 10.4 mph - N/A   Overcast
12:53 PM 42.8 °F 37.5 °F 24.8 °F 49% 30.06 in 10.0 mi WNW 9.2 mph - N/A   Scattered Clouds
1:53 PM 44.6 °F 41.4 °F 24.8 °F 46% 30.06 in 10.0 mi WNW 5.8 mph - N/A   Clear
2:53 PM 44.6 °F 40.2 °F 24.8 °F 46% 30.06 in 10.0 mi WNW 8.1 mph - N/A   Clear
3:53 PM 42.8 °F 39.3 °F 21.2 °F 42% 30.08 in 10.0 mi NNW 5.8 mph - N/A   Clear
4:53 PM 42.8 °F 39.3 °F 21.2 °F 42% 30.10 in 10.0 mi NNW 5.8 mph - N/A   Clear
5:53 PM 39.2 °F 35.0 °F 21.2 °F 49% 30.11 in 10.0 mi WNW 5.8 mph - N/A   Clear
6:53 PM 35.6 °F 31.7 °F 19.4 °F 52% 30.13 in 10.0 mi WNW 4.6 mph - N/A   Clear
7:53 PM 37.9 °F 34.4 °F 17.1 °F 43% 30.15 in 10.0 mi NW 4.6 mph - N/A   Clear
8:53 PM 34.0 °F 31.0 °F 21.0 °F 59% 30.17 in 10.0 mi WNW 3.5 mph - N/A   Clear
9:53 PM 32.0 °F - 24.1 °F 73% 30.19 in 10.0 mi Calm Calm - N/A   Clear
10:53 PM 33.1 °F 27.7 °F 25.0 °F 72% 30.20 in 10.0 mi NW 5.8 mph - N/A   Clear
11:53 PM 33.1 °F 30.0 °F 25.0 °F 72% 30.21 in 10.0 mi NNW 3.5 mph - N/A   Clear